This is the latest recevied weather packets stored in our database for station/object NK7E-2. If no packets are shown the sender has not sent any weather packets the latest 10 day(s).
| Time | Temp. | Humidity | Pressure | Rain* | Wind** | Luminosity | Snow |
|---|---|---|---|---|---|---|---|
| 1788365417 | 29.44° C | 48% | 1030.6 hPa | 0 mm | - | - | - |
| 1788364817 | 29.44° C | 49% | 1030.4 hPa | 0 mm | - | - | - |
| 1788364217 | 28.33° C | 51% | 1030.2 hPa | 0 mm | - | - | - |
| 1788363617 | 28.33° C | 53% | 1030.4 hPa | 0 mm | - | - | - |
| 1788363017 | 27.22° C | 55% | 1030.2 hPa | 0 mm | - | - | - |
| 1788362417 | 27.22° C | 56% | 1030.1 hPa | 0 mm | - | - | - |
| 1788361817 | 27.22° C | 56% | 1029.7 hPa | 0 mm | - | - | - |
| 1788361217 | 26.67° C | 57% | 1030 hPa | 0 mm | - | - | - |
| 1788360617 | 26.11° C | 59% | 1029.9 hPa | 0 mm | - | - | - |
| 1788360017 | 26.11° C | 60% | 1029.6 hPa | 0 mm | - | - | - |
| 1788359417 | 25.56° C | 60% | 1029.8 hPa | 0 mm | - | - | - |
| 1788358816 | 25.56° C | 57% | 1029.4 hPa | 0 mm | - | - | - |
| 1788358217 | 25.56° C | 55% | 1029.4 hPa | 0 mm | - | - | - |
| 1788357616 | 25.56° C | 53% | 1029.4 hPa | 0 mm | - | - | - |
| 1788357016 | 25° C | 57% | 1029.5 hPa | 0 mm | - | - | - |
| 1788356416 | 23.89° C | 59% | 1029.1 hPa | 0 mm | - | - | - |
| 1788355816 | 23.89° C | 58% | 1028.6 hPa | 0 mm | - | - | - |
| 1788355216 | 22.78° C | 61% | 1028.8 hPa | 0 mm | - | - | - |
| 1788354632 | 22.78° C | 60% | 1028.7 hPa | 0 mm | - | - | - |
| 1788354016 | 23.33° C | 58% | 1028.9 hPa | 0 mm | - | - | - |
| 1788353416 | 23.33° C | 57% | 1028.9 hPa | 0 mm | - | - | - |
| 1788352816 | 23.89° C | 55% | 1029 hPa | 0 mm | - | - | - |
| 1788352216 | 23.89° C | 56% | 1028.7 hPa | 0 mm | - | - | - |
| 1788351616 | 23.89° C | 56% | 1028.6 hPa | 0 mm | - | - | - |
| 1788351016 | 23.89° C | 57% | 1028.8 hPa | 0 mm | - | - | - |
* Rain latest hour (hover to see other rain measurements)
** Current wind speed in m/s (hover to see current wind gust speed)